CEB425 RPLL-RPSP

Flight info

Callsign CEB425
Flight time N/A
Altitude 33000
Route IPATA2R/06 IPATA W25 BATAY BATAY1P
Aircraft A21N/M-SDE3FGHIRWY/LB1

Departure

Time N/A
Airport Ninoy Aquino International Airport (RPLL)

Arrival

Time 2026-04-29 14:04
Airport Bohol-Panglao International Airport (RPSP)
Time Latitude Longitude Altitude Speed Heading
2026-04-29 13:56 9.51411 123.83940 6832 ft 297 kts 206°
2026-04-29 13:56 9.49572 123.82996 6485 ft 296 kts 205°
2026-04-29 13:57 9.47743 123.82055 6144 ft 294 kts 206°
2026-04-29 13:57 9.45901 123.81109 5805 ft 292 kts 205°
2026-04-29 13:57 9.44087 123.80176 5472 ft 291 kts 205°
2026-04-29 13:57 9.42280 123.79249 5133 ft 289 kts 206°
2026-04-29 13:58 9.40486 123.78327 4793 ft 288 kts 206°
2026-04-29 13:58 9.38709 123.77412 4453 ft 285 kts 207°
2026-04-29 13:58 9.37144 123.76211 4059 ft 285 kts 234°
2026-04-29 13:58 9.36438 123.74384 3712 ft 276 kts 271°
2026-04-29 13:59 9.36857 123.72599 3633 ft 253 kts 304°
2026-04-29 13:59 9.37832 123.71152 3559 ft 247 kts 310°
2026-04-29 13:59 9.38818 123.69732 3440 ft 247 kts 308°
2026-04-29 13:59 9.39955 123.68469 3274 ft 233 kts 334°
2026-04-29 14:00 9.41426 123.68024 3125 ft 213 kts
2026-04-29 14:00 9.42834 123.68387 3018 ft 208 kts 27°
2026-04-29 14:00 9.44102 123.69076 2867 ft 201 kts 33°
2026-04-29 14:00 9.45279 123.69813 2533 ft 200 kts 34°
2026-04-29 14:01 9.46445 123.70538 2249 ft 191 kts 33°
2026-04-29 14:01 9.47538 123.71194 1997 ft 175 kts 33°
2026-04-29 14:01 9.48552 123.71796 1772 ft 160 kts 34°
2026-04-29 14:01 9.49475 123.72344 1557 ft 147 kts 34°
2026-04-29 14:02 9.50351 123.72867 1389 ft 145 kts 34°
2026-04-29 14:02 9.51223 123.73388 1196 ft 145 kts 34°
2026-04-29 14:02 9.52087 123.73903 1005 ft 144 kts 33°
2026-04-29 14:02 9.52961 123.74406 831 ft 144 kts 33°
2026-04-29 14:03 9.53818 123.74927 682 ft 143 kts 34°
2026-04-29 14:03 9.54680 123.75453 472 ft 143 kts 33°
2026-04-29 14:03 9.55536 123.75959 283 ft 141 kts 34°
2026-04-29 14:03 9.56376 123.76460 93 ft 136 kts 34°
2026-04-29 14:04 9.57129 123.76912 48 ft 93 kts 32°
2026-04-29 14:04 9.57438 123.77097 48 ft 22 kts 31°
2026-04-29 14:04 9.57520 123.77152 48 ft 6 kts 41°
2026-04-29 14:04 9.57543 123.77161 48 ft 2 kts 279°
2026-04-29 14:05 9.57521 123.77142 48 ft 5 kts 210°
2026-04-29 14:05 9.57480 123.77119 48 ft 7 kts 209°
2026-04-29 14:05 9.57423 123.77086 48 ft 10 kts 209°
2026-04-29 14:05 9.57359 123.77087 48 ft 9 kts 136°
2026-04-29 14:06 9.57326 123.77145 48 ft 9 kts 118°
2026-04-29 14:06 9.57291 123.77208 48 ft 10 kts 120°
2026-04-29 14:06 9.57241 123.77250 48 ft 8 kts 185°
2026-04-29 14:06 9.57183 123.77219 48 ft 10 kts 212°
2026-04-29 14:07 9.57121 123.77180 48 ft 10 kts 211°
2026-04-29 14:07 9.57055 123.77140 48 ft 9 kts 211°
2026-04-29 14:07 9.56993 123.77103 48 ft 10 kts 210°
2026-04-29 14:07 9.56966 123.77098 48 ft 3 kts 150°
2026-04-29 14:08 9.56949 123.77118 48 ft 4 kts 122°
2026-04-29 14:08 9.56933 123.77146 48 ft 4 kts 118°
2026-04-29 14:08 9.56926 123.77158 48 ft 0 kts 120°
2026-04-29 14:08 9.56924 123.77162 48 ft 1 kts 120°
2026-04-29 14:09 9.56919 123.77171 48 ft 1 kts 121°